| time (UTC) | temp C | wind direction | speed KPH | gust KPH | rain 1hr cm | rain 24hr cm | rain mn cm | humidity % | barometer mb |
| 20260505040804 | 9 | 194 | 1.6 | 3.2 | 0.00 | 0.00 | 0.00 | 75 | 1012.7 |
| 20260505040304 | 9 | 193 | 0.0 | 1.6 | 0.00 | 0.00 | 0.00 | 75 | 1012.6 |
| 20260505035804 | 9 | 148 | 1.6 | 3.2 | 0.00 | 0.00 | 0.00 | 74 | 1012.5 |
| 20260505035304 | 9 | 197 | 0.0 | 0.0 | 0.00 | 0.00 | 0.00 | 72 | 1012.7 |
| 20260505034804 | 9 | 206 | 0.0 | 0.0 | 0.00 | 0.00 | 0.00 | 71 | 1012.8 |
| 20260505034304 | 9 | 128 | 0.0 | 0.0 | 0.00 | 0.00 | 0.00 | 72 | 1012.6 |
| 20260505033804 | 9 | 116 | 0.0 | 0.0 | 0.00 | 0.00 | 0.00 | 73 | 1012.5 |
| 20260505032804 | 9 | 130 | 0.0 | 0.0 | 0.00 | 0.00 | 0.00 | 71 | 1012.6 |
| 20260505032305 | 9 | 223 | 0.0 | 0.0 | 0.00 | 0.00 | 0.00 | 72 | 1012.7 |
| 20260505031804 | 9 | 135 | 0.0 | 0.0 | 0.00 | 0.00 | 0.00 | 72 | 1012.7 |
| 20260505031304 | 9 | 214 | 0.0 | 0.0 | 0.00 | 0.00 | 0.00 | 71 | 1012.6 |
| 20260505030804 | 9 | 221 | 0.0 | 0.0 | 0.00 | 0.00 | 0.00 | 70 | 1012.6 |
| 20260505030304 | 9 | 157 | 0.0 | 0.0 | 0.00 | 0.00 | 0.00 | 72 | 1012.6 |
| 20260505025804 | 9 | 153 | 0.0 | 0.0 | 0.00 | 0.00 | 0.00 | 73 | 1012.7 |
| 20260505025305 | 9 | 203 | 0.0 | 0.0 | 0.00 | 0.00 | 0.00 | 73 | 1012.8 |
| 20260505024805 | 9 | 217 | 0.0 | 0.0 | 0.00 | 0.00 | 0.00 | 72 | 1012.6 |
| 20260505024304 | 8 | 216 | 0.0 | 0.0 | 0.00 | 0.00 | 0.00 | 74 | 1012.9 |
| 20260505023804 | 9 | 228 | 0.0 | 0.0 | 0.00 | 0.00 | 0.00 | 74 | 1012.7 |
| 20260505023304 | 9 | 211 | 1.6 | 1.6 | 0.00 | 0.00 | 0.00 | 73 | 1012.6 |
| 20260505022805 | 9 | 209 | 0.0 | 1.6 | 0.00 | 0.00 | 0.00 | 73 | 1012.7 |
| 20260505022304 | 8 | 172 | 0.0 | 1.6 | 0.00 | 0.00 | 0.00 | 73 | 1012.9 |
| 20260505021804 | 8 | 199 | 1.6 | 3.2 | 0.00 | 0.00 | 0.00 | 73 | 1013.0 |
| 20260505021305 | 9 | 189 | 1.6 | 3.2 | 0.00 | 0.00 | 0.00 | 72 | 1012.7 |
| 20260505020804 | 9 | 197 | 1.6 | 3.2 | 0.00 | 0.00 | 0.00 | 70 | 1012.8 |
| 20260505020304 | 9 | 197 | 0.0 | 1.6 | 0.00 | 0.00 | 0.00 | 70 | 1012.8 |
| 20260505015804 | 9 | 189 | 0.0 | 1.6 | 0.00 | 0.00 | 0.00 | 69 | 1012.9 |
| 20260505015305 | 9 | 146 | 1.6 | 3.2 | 0.00 | 0.00 | 0.00 | 69 | 1012.8 |
| 20260505014804 | 9 | 141 | 0.0 | 0.0 | 0.00 | 0.00 | 0.00 | 69 | 1013.0 |
| 20260505014304 | 9 | 149 | 0.0 | 1.6 | 0.00 | 0.00 | 0.00 | 69 | 1012.9 |
| 20260505013804 | 9 | 176 | 0.0 | 1.6 | 0.00 | 0.00 | 0.00 | 68 | 1012.9 |
| 20260505013304 | 9 | 151 | 0.0 | 1.6 | 0.00 | 0.00 | 0.00 | 67 | 1013.1 |
| 20260505012305 | 9 | 149 | 0.0 | 0.0 | 0.00 | 0.00 | 0.00 | 67 | 1013.0 |
| 20260505011804 | 9 | 182 | 1.6 | 1.6 | 0.00 | 0.00 | 0.00 | 68 | 1013.2 |
| 20260505011305 | 9 | 157 | 1.6 | 3.2 | 0.00 | 0.00 | 0.00 | 69 | 1013.3 |
| 20260505010805 | 9 | 155 | 1.6 | 3.2 | 0.00 | 0.00 | 0.00 | 68 | 1013.3 |
| 20260505010304 | 9 | 159 | 3.2 | 3.2 | 0.00 | 0.00 | 0.00 | 67 | 1013.2 |
| 20260505005804 | 9 | 141 | 3.2 | 3.2 | 0.00 | 0.00 | 0.00 | 66 | 1013.3 |
| 20260505005305 | 9 | 144 | 1.6 | 3.2 | 0.00 | 0.00 | 0.00 | 66 | 1013.2 |
| 20260505004304 | 9 | 139 | 3.2 | 3.2 | 0.00 | 0.00 | 0.00 | 65 | 1013.2 |
| 20260505003804 | 10 | 151 | 1.6 | 3.2 | 0.00 | 0.00 | 0.00 | 64 | 1013.1 |
| 20260505002305 | 10 | 172 | 0.0 | 0.0 | 0.00 | 0.00 | 0.00 | 64 | 1013.2 |
| 20260505001304 | 9 | 150 | 0.0 | 1.6 | 0.00 | 0.00 | 0.00 | 64 | 1013.2 |
| 20260505000804 | 9 | 135 | 1.6 | 3.2 | 0.00 | 0.00 | 0.00 | 64 | 1013.5 |
| 20260505000304 | 9 | 139 | 1.6 | 4.8 | 0.00 | 0.00 | 0.00 | 64 | 1013.5 |
| 20260504235804 | 9 | 146 | 0.0 | 1.6 | 0.00 | 0.00 | 0.00 | 64 | 1013.5 |
| 20260504235305 | 9 | 120 | 0.0 | 0.0 | 0.00 | 0.00 | 0.00 | 65 | 1013.5 |
| 20260504234805 | 8 | 179 | 0.0 | 0.0 | 0.00 | 0.00 | 0.00 | 66 | 1013.6 |
| 20260504234304 | 9 | 239 | 0.0 | 0.0 | 0.00 | 0.00 | 0.00 | 66 | 1013.7 |
| 20260504233304 | 9 | 344 | 1.6 | 3.2 | 0.00 | 0.00 | 0.00 | 65 | 1013.9 |
| 20260504232805 | 9 | 273 | 0.0 | 4.8 | 0.00 | 0.00 | 0.00 | 65 | 1013.8 |
| 20260504232304 | 9 | 190 | 0.0 | 3.2 | 0.00 | 0.00 | 0.00 | 64 | 1013.8 |
| 20260504231304 | 9 | 203 | 1.6 | 8.0 | 0.00 | 0.00 | 0.00 | 64 | 1013.8 |
| 20260504230804 | 9 | 142 | 1.6 | 8.0 | 0.00 | 0.00 | 0.00 | 65 | 1013.6 |
| 20260504230304 | 10 | 157 | 1.6 | 3.2 | 0.00 | 0.00 | 0.00 | 65 | 1013.5 |
| 20260504225804 | 10 | 173 | 1.6 | 3.2 | 0.00 | 0.00 | 0.00 | 64 | 1013.6 |
| 20260504224804 | 9 | 215 | 1.6 | 4.8 | 0.00 | 0.00 | 0.00 | 67 | 1013.7 |
| 20260504224305 | 10 | 159 | 1.6 | 4.8 | 0.00 | 0.00 | 0.00 | 66 | 1013.6 |
| 20260504223804 | 10 | 248 | 1.6 | 3.2 | 0.00 | 0.00 | 0.00 | 63 | 1013.8 |
| 20260504222305 | 10 | 300 | 1.6 | 4.8 | 0.00 | 0.00 | 0.00 | 65 | 1013.8 |
| 20260504221804 | 10 | 310 | 3.2 | 4.8 | 0.00 | 0.00 | 0.00 | 65 | 1013.8 |
| 20260504221304 | 10 | 274 | 1.6 | 4.8 | 0.00 | 0.00 | 0.00 | 64 | 1013.8 |
| 20260504220305 | 10 | 266 | 3.2 | 8.0 | 0.00 | 0.00 | 0.00 | 61 | 1013.9 |
| 20260504215804 | 10 | 258 | 1.6 | 3.2 | 0.00 | 0.00 | 0.00 | 63 | 1013.9 |
| 20260504215305 | 10 | 195 | 1.6 | 3.2 | 0.00 | 0.00 | 0.00 | 64 | 1013.8 |
| 20260504214804 | 10 | 152 | 1.6 | 3.2 | 0.00 | 0.00 | 0.00 | 64 | 1013.8 |
| 20260504214304 | 10 | 208 | 3.2 | 4.8 | 0.00 | 0.00 | 0.00 | 61 | 1014.0 |
| 20260504213805 | 11 | 240 | 1.6 | 3.2 | 0.00 | 0.00 | 0.00 | 61 | 1013.9 |
| 20260504213304 | 11 | 247 | 1.6 | 11.3 | 0.00 | 0.00 | 0.00 | 59 | 1014.0 |
| 20260504212804 | 11 | 218 | 0.0 | 3.2 | 0.00 | 0.00 | 0.00 | 60 | 1014.0 |
| 20260504212304 | 11 | 272 | 0.0 | 3.2 | 0.00 | 0.00 | 0.00 | 60 | 1013.8 |
| 20260504211804 | 11 | 255 | 1.6 | 1.6 | 0.00 | 0.00 | 0.00 | 60 | 1013.9 |
| 20260504210805 | 11 | 209 | 0.0 | 1.6 | 0.00 | 0.00 | 0.00 | 62 | 1014.1 |
| 20260504210304 | 11 | 208 | 1.6 | 3.2 | 0.00 | 0.00 | 0.00 | 62 | 1014.2 |
| 20260504205805 | 11 | 222 | 1.6 | 3.2 | 0.00 | 0.00 | 0.00 | 61 | 1014.0 |
| 20260504204804 | 11 | 238 | 0.0 | 3.2 | 0.00 | 0.00 | 0.00 | 59 | 1014.0 |
| 20260504204304 | 12 | 228 | 1.6 | 8.0 | 0.00 | 0.00 | 0.00 | 57 | 1013.9 |
| 20260504203804 | 12 | 247 | 3.2 | 9.7 | 0.00 | 0.00 | 0.00 | 54 | 1013.9 |
| 20260504203304 | 12 | 269 | 4.8 | 9.7 | 0.00 | 0.00 | 0.00 | 54 | 1013.8 |
| 20260504202804 | 12 | 277 | 4.8 | 8.0 | 0.00 | 0.00 | 0.00 | 54 | 1013.4 |
| 20260504201805 | 11 | 256 | 1.6 | 4.8 | 0.00 | 0.00 | 0.00 | 58 | 1013.7 |
| 20260504201304 | 11 | 233 | 3.2 | 4.8 | 0.00 | 0.00 | 0.00 | 61 | 1013.5 |
| 20260504200804 | 11 | 183 | 1.6 | 3.2 | 0.00 | 0.00 | 0.00 | 63 | 1013.5 |
| 20260504200304 | 12 | 231 | 1.6 | 4.8 | 0.00 | 0.00 | 0.00 | 61 | 1013.6 |
| 20260504195804 | 12 | 230 | 1.6 | 3.2 | 0.00 | 0.00 | 0.00 | 60 | 1013.1 |
| 20260504195304 | 13 | 227 | 1.6 | 4.8 | 0.00 | 0.00 | 0.00 | 56 | 1012.9 |
| 20260504194804 | 13 | 251 | 4.8 | 9.7 | 0.00 | 0.00 | 0.00 | 54 | 1013.0 |
| 20260504194304 | 13 | 252 | 3.2 | 8.0 | 0.00 | 0.00 | 0.00 | 55 | 1012.9 |
| 20260504193804 | 13 | 253 | 3.2 | 8.0 | 0.00 | 0.00 | 0.00 | 54 | 1012.7 |
| 20260504193304 | 13 | 286 | 4.8 | 9.7 | 0.00 | 0.00 | 0.00 | 53 | 1012.8 |
| 20260504192804 | 13 | 271 | 4.8 | 11.3 | 0.00 | 0.00 | 0.00 | 53 | 1012.7 |
| 20260504192304 | 13 | 253 | 4.8 | 9.7 | 0.00 | 0.00 | 0.00 | 54 | 1012.7 |
| 20260504191804 | 14 | 285 | 3.2 | 11.3 | 0.00 | 0.00 | 0.00 | 53 | 1012.8 |
| 20260504191304 | 15 | 268 | 6.4 | 11.3 | 0.00 | 0.00 | 0.00 | 52 | 1012.4 |
| 20260504190805 | 15 | 255 | 4.8 | 11.3 | 0.00 | 0.00 | 0.00 | 51 | 1012.4 |
| 20260504190305 | 15 | 271 | 6.4 | 11.3 | 0.00 | 0.00 | 0.00 | 50 | 1012.3 |
| 20260504185805 | 15 | 262 | 6.4 | 11.3 | 0.00 | 0.00 | 0.00 | 49 | 1012.1 |
| 20260504185305 | 15 | 241 | 4.8 | 11.3 | 0.00 | 0.00 | 0.00 | 49 | 1012.2 |
| 20260504184305 | 16 | 224 | 8.0 | 14.5 | 0.00 | 0.00 | 0.00 | 46 | 1011.8 |
| 20260504183305 | 17 | 258 | 6.4 | 14.5 | 0.00 | 0.00 | 0.00 | 45 | 1011.8 |
| 20260504182304 | 17 | 253 | 9.7 | 22.5 | 0.00 | 0.00 | 0.00 | 42 | 1011.6 |
| 20260504181804 | 17 | 268 | 11.3 | 22.5 | 0.00 | 0.00 | 0.00 | 42 | 1011.4 |
| 20260504181305 | 17 | 269 | 11.3 | 20.9 | 0.00 | 0.00 | 0.00 | 41 | 1011.5 |
| 20260504180804 | 17 | 275 | 9.7 | 20.9 | 0.00 | 0.00 | 0.00 | 42 | 1011.4 |
| 20260504175804 | 17 | 264 | 8.0 | 20.9 | 0.00 | 0.00 | 0.00 | 43 | 1011.6 |
| 20260504175304 | 17 | 260 | 9.7 | 20.9 | 0.00 | 0.00 | 0.00 | 43 | 1011.3 |
| 20260504174305 | 18 | 272 | 11.3 | 20.9 | 0.00 | 0.00 | 0.00 | 42 | 1011.3 |
| 20260504173804 | 18 | 317 | 9.7 | 19.3 | 0.00 | 0.00 | 0.00 | 41 | 1011.2 |
| 20260504173304 | 18 | 267 | 8.0 | 16.1 | 0.00 | 0.00 | 0.00 | 42 | 1011.5 |
| 20260504172804 | 18 | 263 | 4.8 | 14.5 | 0.00 | 0.00 | 0.00 | 43 | 1011.1 |
| 20260504172304 | 18 | 263 | 8.0 | 24.1 | 0.00 | 0.00 | 0.00 | 42 | 1011.2 |
| 20260504170805 | 20 | 263 | 9.7 | 16.1 | 0.00 | 0.00 | 0.00 | 38 | 1010.9 |
| 20260504170304 | 20 | 306 | 8.0 | 16.1 | 0.00 | 0.00 | 0.00 | 40 | 1010.9 |
| 20260504160304 | 19 | 273 | 11.3 | 22.5 | 0.00 | 0.00 | 0.00 | 41 | 1010.8 |
| 20260504150804 | 20 | 255 | 4.8 | 14.5 | 0.00 | 0.05 | 0.00 | 43 | 1010.7 |
| 20260504150304 | 20 | 260 | 9.7 | 25.7 | 0.00 | 0.05 | 0.00 | 42 | 1010.7 |
| 20260504141304 | 20 | 231 | 9.7 | 24.1 | 0.00 | 0.10 | 0.00 | 46 | 1010.7 |
| 20260504140804 | 20 | 237 | 4.8 | 19.3 | 0.00 | 0.10 | 0.00 | 46 | 1011.0 |
| 20260504140304 | 20 | 254 | 4.8 | 14.5 | 0.00 | 0.10 | 0.00 | 46 | 1011.2 |
| 20260504130804 | 18 | 308 | 9.7 | 20.9 | 0.00 | 0.10 | 0.00 | 53 | 1011.7 |
| 20260504120305 | 18 | 237 | 8.0 | 24.1 | 0.00 | 1.57 | 0.00 | 45 | 1011.9 |
| 20260504110304 | 18 | 228 | 11.3 | 20.9 | 0.00 | 1.57 | 0.00 | 53 | 1012.2 |
| 20260504100305 | 17 | 276 | 9.7 | 19.3 | 0.00 | 1.57 | 0.00 | 62 | 1012.4 |
| 20260504081805 | 13 | 228 | 1.6 | 8.0 | 0.00 | 1.57 | 0.00 | 82 | 1013.0 |
| 20260504081304 | 13 | 233 | 4.8 | 9.7 | 0.00 | 1.57 | 0.00 | 83 | 1013.0 |
| 20260504080804 | 13 | 219 | 6.4 | 9.7 | 0.00 | 1.57 | 0.00 | 84 | 1013.2 |
| 20260504080304 | 13 | 236 | 6.4 | 11.3 | 0.00 | 1.57 | 0.00 | 85 | 1013.2 |
| 20260504050304 | 11 | 257 | 1.6 | 3.2 | 0.00 | 1.57 | 0.00 | 93 | 1011.8 |
| 20260504045804 | 11 | 230 | 0.0 | 1.6 | 0.00 | 1.57 | 0.00 | 93 | 1011.9 |